Hourly Data Report for January 07, 2017

TORONTO CITY
ONTARIO

43°40'00.000" N
79°24'00.000" W
112.50 m
6158355
71508
XTO

Download Data

Hourly Data (January 2017)
Hourly Data Report for January 7, 2017
TIME
LST
Temp Definition
°C
Dew Point Definition
°C
Rel Hum Definition
%
Precip. Amount Definition
mm

Wind Dir Definition
10's deg

Wind Spd Definition
km/h
Visibility Definition
km
Stn Press Definition
kPa
Hmdx Definition


Wind Chill Definition


Weather Definition


00:00 -10.4 -15.1 69 0.0 LegendMM LegendMM   101.12     LegendNANA
01:00 -10.8 -15.0 71 0.0 LegendMM LegendMM   101.18     LegendNANA
02:00 -11.0 -15.0 72 0.0 LegendMM LegendMM   101.19     LegendNANA
03:00 -11.0 -15.2 71 0.0 LegendMM LegendMM   101.25     LegendNANA
04:00 -11.2 -15.3 72 0.0 LegendMM LegendMM   101.27     LegendNANA
05:00 -11.4 -15.4 72 0.0 LegendMM LegendMM   101.25     LegendNANA
06:00 -11.6 -15.3 74 0.0 LegendMM LegendMM   101.27     LegendNANA
07:00 -11.5 -15.0 76 0.0 LegendMM LegendMM   101.26     LegendNANA
08:00 -11.7 -14.9 77 0.0 LegendMM LegendMM   101.27     LegendNANA
09:00 -11.3 -14.7 76 0.0 LegendMM LegendMM   101.32     LegendNANA
10:00 -10.1 -14.2 72 0.0 LegendMM LegendMM   101.32     LegendNANA
11:00 -7.7 -13.1 66 0.0 LegendMM LegendMM   101.32     LegendNANA
12:00 -6.4 -13.1 59 0.0 LegendMM LegendMM   101.25     LegendNANA
13:00 -7.5 -12.9 65 0.0 LegendMM LegendMM   101.15     LegendNANA
14:00 -6.8 -13.0 62 0.0 LegendMM LegendMM   101.09     LegendNANA
15:00 -6.9 -13.6 59 0.0 LegendMM LegendMM   101.08     LegendNANA
16:00 -7.9 -14.3 60 0.0 LegendMM LegendMM   101.11     LegendNANA
17:00 -8.7 -17.3 50 0.0 LegendMM LegendMM   101.14     LegendNANA
18:00 -9.3 -17.1 53 0.0 LegendMM LegendMM   101.14     LegendNANA
19:00 -9.6 -17.2 54 0.0 LegendMM LegendMM   101.11     LegendNANA
20:00 -10.0 -16.9 57 0.0 LegendMM LegendMM   101.13     LegendNANA
21:00 -10.3 -16.3 62 0.0 LegendMM LegendMM   101.07     LegendNANA
22:00 -10.6 -16.0 65 0.0 LegendMM LegendMM   101.03     LegendNANA
23:00 -10.6 -14.9 71 0.0 LegendMM LegendMM   100.96     LegendNANA

Notes on Data Quality.

Legend

  • E = Estimated
  • M = Missing
  • NA = Not Available*
  • [empty] = Indicates an unobserved value
Date modified: